Вернуться в каталог

COSMOS 1312

АктивенВоенныеPO
NORAD 12879·PAYLOAD·🇷🇺 Russia

Запущен Sep 30, 1981 с Plesetsk Cosmodrome

Loading…

Ближайшие Пролёты (ближайшие 24 часа)

TLE

СвежийSource: Space-Track

Эпоха: Sep 14, 2026, 17:51 UTC

1 12879U 81098A   26257.74440367  .00000037  00000-0  19561-3 0  9995
2 12879  82.6046 171.8398 0005924 273.4054 112.5409 12.42394026580678

Отслеживайте COSMOS 1312 в реальном времени с AllMySat

Download on the App Store